Location: Chakepay
(13.3931°S, 72.1925°W)
Time: 18:24:54
(UTC+00:00)

Cosmos 773 Rocket - Pass Details

Date: 15 November 2019
Orbit: 745 x 778 km, 74.1° (Epoch: 07 December)

Event Time Altitude Azimuth Distance (km) Brightness Sun altitude
Rises 09:36:26 0° 343° (NNW) 3,239 6.9 -8.8°
Reaches altitude 10° 09:38:49 10° 340° (NNW) 2,316 6.1 -8.3°
Maximum altitude 09:44:03 70° 257° (WSW) 825 4.0 -7.1°
Drops below altitude 10° 09:49:19 10° 173° (S) 2,324 6.9 -5.9°
Sets 09:51:43 0° 171° (S) 3,251 7.7 -5.4°
